Location: Amon Carter Post Office
(32.8281°N, 97.0484°W)
Time: 12:06:51
(UTC+00:00)

Sich 1 - Pass Details

Date: 07 July 2022
Orbit: 593 x 622 km, 82.5° (Epoch: 12 August)

Event Time Altitude Azimuth Distance (km) Brightness Sun altitude
Exits shadow 09:45:12 39° 228° (SW) 897 3.3 -18.1°
Maximum altitude 09:46:22 53° 278° (W) 742 3.2 -17.9°
Drops below altitude 10° 09:50:33 10° 356° (N) 1,938 6.1 -17.3°
Sets 09:52:49 0° 1° (N) 2,841 7.1 -17.0°
